Location: Dackenheim
(49.5215°N, 8.1854°E)
Time: 07:04:45
(UTC+00:00)

NOSS 3-1 (C) - Pass Details

Date: 19 May 2025
Orbit: 632 x 1571 km, 63.4° (Epoch: 12 June)

Event Time Altitude Azimuth Distance (km) Brightness Sun altitude
Rises 22:07:12 0° 245° (WSW) 3,042 6.0 -18.5°
Reaches altitude 10° 22:09:27 10° 252° (WSW) 2,203 5.4 -18.6°
Maximum altitude 22:14:15 45° 326° (NW) 1,095 4.2 -18.8°
Drops below altitude 10° 22:20:08 10° 39° (NE) 2,704 6.3 -19.1°
Sets 22:23:09 0° 45° (NE) 3,815 7.0 -19.2°
